Location: Trout Lake
(45.9980°N, 121.5270°W)
Time: 20:54:07
(UTC-08:00)

Cosmos 1766 Rocket - Pass Details

Date: 06 December 2023
Orbit: 603 x 628 km, 82.5° (Epoch: 22 February)

Event Time Altitude Azimuth Distance (km) Brightness Sun altitude
Rises 18:21:01 0° 351° (N) 2,886 7.0 -20.0°
Reaches altitude 10° 18:23:15 10° 353° (N) 1,973 6.1 -20.4°
Maximum altitude 18:27:37 81° 81° (E) 620 3.3 -21.1°
Drops below altitude 10° 18:31:56 10° 169° (S) 1,946 6.1 -21.9°
Sets 18:34:08 0° 170° (S) 2,843 7.0 -22.3°
